Eielson Air Force Base, AK

5:28 PM AKDT on August 29, 2016 (GMT -0800)
Eielson Air Force Base

Weather History for PAEI - September, 2013

Change the Weather History Date:

Friday, September 13, 2013

  Actual Average Record
Temperature  
Mean Temperature 41 °F -  
Max Temperature 50 °F 56 °F 74 °F (1965)
Min Temperature 32 °F 38 °F 26 °F (2003)
Degree Days  
Heating Degree Days 24    
Moisture  
Dew Point 40 °F    
Average Humidity 94    
Maximum Humidity 100    
Minimum Humidity 84    
Precipitation  
Precipitation 0.02 in - - ()
Sea Level Pressure  
Sea Level Pressure 29.91 in    
Wind  
Wind Speed 1 mph (NNE)    
Max Wind Speed 9 mph    
Max Gust Speed -    
Visibility 9 miles    
Events Rain    
Averages and records for this station are not official NWS values.
T = Trace of Precipitation, MM = Missing Value Source: NWS Daily Summary

Daily Weather History Graph

Daily Weather History Graph

Search for Another Location

Airport or City:

Trip Planner

Search our weather history database for the weather conditions in past years. The results will help you decide how hot, cold, wet, or windy it might be!

Date:

Astronomy

Sep. 13, 2013 Rise Set
Actual Time 7:06 AM AKDT 8:20 PM AKDT
Civil Twilight 6:15 AM AKDT 9:10 PM AKDT
Nautical Twilight 5:11 AM AKDT 10:14 PM AKDT
Astronomical Twilight 3:48 AM AKDT 11:34 PM AKDT
Moon 5:58 PM AKDT (9/13) No Moon Set
Length of Visible Light 14h 54m
Length of Day
13h 14m
Waxing Gibbous, 63% of the Moon is Illuminated
Sep 13
Waxing Gibbous
Sep 19
Full
Sep 26
Last Quarter
Oct 4
New
Oct 11
First Quarter

Hourly Weather History & Observations

Time (AKDT) Temp. Dew Point Humidity Pressure Visibility Wind Dir Wind Speed Gust Speed Precip Events Conditions
12:58 AM 39.0 °F 37.9 °F 96% 29.87 in 9.0 mi Calm Calm - N/A   Clear
1:13 AM 39.2 °F 39.2 °F 100% 29.85 in 10.0 mi Calm Calm - N/A   Clear
1:58 AM 37.9 °F 37.0 °F 97% 29.87 in 10.0 mi ENE 1.2 mph - N/A   Partly Cloudy
2:58 AM 35.8 °F 34.9 °F 97% 29.88 in 10.0 mi Calm Calm - N/A   Clear
3:58 AM 34.3 °F 33.4 °F 97% 29.89 in 10.0 mi Calm Calm - N/A   Clear
4:58 AM 33.6 °F 32.7 °F 96% 29.90 in 10.0 mi Calm Calm - N/A   Clear
5:13 AM 32.0 °F 32.0 °F 100% 29.88 in 4.0 mi Calm Calm - N/A   Partly Cloudy
5:28 AM 32.0 °F 32.0 °F 100% 29.88 in 4.0 mi Calm Calm - N/A   Scattered Clouds
5:43 AM 32.0 °F 32.0 °F 100% 29.89 in 10.0 mi North 1.2 mph - N/A   Mostly Cloudy
5:58 AM 33.6 °F 32.9 °F 97% 29.91 in 10.0 mi Variable 2.3 mph - N/A   Overcast
6:58 AM 33.4 °F 32.4 °F 96% 29.91 in 4.0 mi Calm Calm - N/A   Scattered Clouds
7:43 AM 33.8 °F 32.0 °F 93% 29.90 in 10.0 mi Calm Calm - N/A   Clear
7:58 AM 33.6 °F 32.7 °F 96% 29.92 in 10.0 mi Calm Calm - N/A   Mostly Cloudy
8:58 AM 33.3 °F 32.2 °F 96% 29.92 in 2.0 mi ENE 1.2 mph - N/A   Mostly Cloudy
9:07 AM 33.8 °F 32.0 °F 93% 29.89 in 6.0 mi Calm Calm - N/A   Mostly Cloudy
9:28 AM 35.6 °F 35.6 °F 100% 29.90 in 10.0 mi Calm Calm - N/A   Scattered Clouds
9:58 AM 40.5 °F 39.2 °F 95% 29.92 in 10.0 mi Calm Calm - N/A   Mostly Cloudy
10:58 AM 44.1 °F 41.4 °F 90% 29.92 in 10.0 mi North 1.2 mph - N/A   Mostly Cloudy
11:58 AM 46.2 °F 43.5 °F 90% 29.93 in 10.0 mi NNW 2.3 mph - N/A   Mostly Cloudy
12:58 PM 48.0 °F 43.7 °F 85% 29.92 in 10.0 mi Calm Calm - N/A   Mostly Cloudy
1:58 PM 48.0 °F 43.3 °F 84% 29.91 in 10.0 mi North 9.2 mph - N/A   Clear
2:58 PM 48.2 °F 44.2 °F 86% 29.94 in 10.0 mi West 6.9 mph - 0.00 in Rain Light Rain
3:58 PM 48.0 °F 45.3 °F 90% 29.94 in 10.0 mi Calm Calm - 0.01 in Rain Light Rain
4:58 PM 49.1 °F 46.2 °F 90% 29.94 in 10.0 mi NNE 1.2 mph - 0.01 in   Mostly Cloudy
5:28 PM 50.0 °F 46.4 °F 87% 29.90 in 10.0 mi ENE 1.2 mph - N/A   Mostly Cloudy
5:58 PM 49.8 °F 46.8 °F 89% 29.92 in 10.0 mi Calm Calm - N/A   Overcast
6:58 PM 50.5 °F 47.7 °F 90% 29.93 in 10.0 mi Calm Calm - N/A   Overcast
7:58 PM 49.6 °F 48.0 °F 94% 29.94 in 10.0 mi Calm Calm - 0.00 in Rain Light Rain
8:13 PM 48.2 °F 48.2 °F 100% 29.91 in 10.0 mi Calm Calm - N/A   Overcast
8:58 PM 48.4 °F 47.3 °F 96% 29.94 in 10.0 mi Calm Calm - 0.00 in   Overcast
9:58 PM 46.8 °F 46.0 °F 97% 29.95 in 10.0 mi Calm Calm - N/A   Mostly Cloudy
10:28 PM 46.4 °F 46.4 °F 100% 29.93 in 2.0 mi Calm Calm - N/A   Mostly Cloudy
10:43 PM 46.4 °F 44.6 °F 93% 29.93 in 10.0 mi Calm Calm - N/A   Overcast
10:58 PM 46.4 °F 45.5 °F 97% 29.95 in 10.0 mi NE 1.2 mph - N/A   Overcast
11:58 PM 46.6 °F 45.3 °F 95% 29.96 in 10.0 mi Calm Calm - N/A   Mostly Cloudy